Location: Stockholm
(59.3333°N, 18.0500°E)
Time: 15:44:36
(UTC+02:00)

ISS - Pass Details

Date: 24 May 2018
Orbit: 403 x 407 km, 51.6° (Epoch: 26 June)

Event Time Altitude Azimuth Distance (km) Brightness Sun altitude
Rises 22:40:35 0° 235° (SW) 2,321 0.0 -5.8°
Reaches altitude 10° 22:43:01 10° 217° (SW) 1,461 -1.2 -6.0°
Maximum altitude 22:45:27 20° 169° (S) 1,020 -2.4 -6.1°
Drops below altitude 10° 22:47:53 10° 121° (ESE) 1,461 -1.5 -6.3°
Enters shadow 22:51:04 -2° 101° (E) 2,608 -0.1 -6.5°
